sat.trackr.live / text

‹ back to catalog

STARLINK-36958

NORAD 68163 · 2026-049X

PAYLOAD ACTIVE UNKNOWN

§ Identity

Operator
Country
US
Launch date
2026-03-13
Launch site
AFWTR
Launch vehicle
Mass (kg)
RCS (m²)

Purposes: comms

External: N2YO · Heavens-Above · Gunter

§ Orbital elements

Epoch: 2026-05-25T01:06:19.052640Z

Period
93.91 min
Inclination
97.2861°
Eccentricity
0.0000217
Mean motion
15.33442814 rev/d
Perigee alt
465.4 km
Apogee alt
465.7 km
Semi-major
6,843.7 km
B*
5.1689e-4
RAAN
166.6239°
Arg perigee
205.5932°
Mean anomaly
154.5300°
Rev number
1,134

§ Raw data

STARLINK-369581 68163U 26049X   26145.04605385  .00016648  00000+0  51689-3 0  99902 68163  97.2861 166.6239 0000217 205.5932 154.5300 15.33442814 11340

JSON: /api/v1/satellites/68163 · /tle

For live sub-satellite position, see the globe view (requires WebGL).

§ Visibility from observer

Set your observer location to see the next 7 days of passes ≥ 10°. The values pass through the URL so the page stays shareable.

No JS? Fill the form by hand. The geolocation button needs JavaScript.